Location: Home
(42.5358°N, 72.7383°W)
Time: 00:03:06
(UTC-04:00)

DELTA 1 DEB - Pass Details

Date: 05 July 2022
Orbit: 600 x 774 km, 98.5° (Epoch: 16 August)

Event Time Altitude Azimuth Distance (km) Brightness Sun altitude
Exits shadow 22:50:36 34° 170° (S) 1,234 ? -18.7°
Maximum altitude 22:52:53 84° 255° (WSW) 755 ? -18.9°
Drops below altitude 10° 22:57:47 10° 345° (NNW) 2,219 ? -19.3°
Sets 23:00:01 0° 346° (NNW) 3,117 ? -19.5°
